Location: Dover
(48.8500°N, 53.9833°W)
Time: 07:27:45
(UTC+00:00)

PSLV R/B - Pass Details

Date: 14 November 2025
Orbit: 561 x 589 km, 98.0° (Epoch: 12 December)

Event Time Altitude Azimuth Distance (km) Brightness Sun altitude
Rises 22:24:00 0° 180° (S) 2,766 6.9 -24.2°
Reaches altitude 10° 22:26:13 10° 186° (S) 1,869 6.1 -24.5°
Maximum altitude 22:30:06 46° 260° (W) 774 4.4 -25.2°
Drops below altitude 10° 22:34:01 10° 335° (NNW) 1,871 6.3 -25.8°
Sets 22:36:14 0° 341° (NNW) 2,770 7.2 -26.2°
